User: anonymous   Login
Location: Sternwarte auf dem Internationalen Platz Vogelsang IP
(50.5721°N, 6.4398°E)
Time: 22:26:41
(UTC+01:00)
Language:

S-56A Canister/Altair - Orbit

View from above orbital plane
View from above orbital plane
View from above satellite
View from above satellite

Ground track
Ground track

The orbit data is extracted from the following two-line orbital elements,

1 00082U 61004B   25339.33352666  .00000478  00000-0  42915-3 0  9990
2 00082  38.8585 359.8140 1167344   7.5968 354.0843 12.27804881 52971
Epoch (UTC): 05 December 2025 08:00:16
Eccentricity: 0.1167344
inclination: 38.8585°
perigee height: 632 km
apogee height: 2485 km
right ascension of ascending node: 359.8140°
argument of perigee: 7.5968°
revolutions per day: 12.27804881
mean anomaly at epoch: 354.0843°
orbit number at epoch: 5297

The dashed part of the orbit path shows where the satellite is in the earth's shadow,  

DLR